| time (UTC) | temp C | wind direction | speed KPH | gust KPH | rain 1hr cm | rain 24hr cm | rain mn cm | humidity % | barometer mb |
| 20260906014530 | 8 | 355 | 0.0 | 0.0 | 0.00 | 0.00 | 0.00 | 93 | 1026.6 |
| 20260906013026 | 8 | 355 | 0.0 | 0.0 | 0.00 | 0.00 | 0.00 | 93 | 1026.5 |
| 20260906011525 | 8 | 355 | 0.0 | 0.0 | 0.00 | 0.00 | 0.00 | 93 | 1026.5 |
| 20260906010024 | 8 | 355 | 0.0 | 1.6 | 0.00 | 0.00 | 0.00 | 93 | 1026.5 |
| 20260906004522 | 8 | 355 | 0.0 | 0.0 | 0.00 | 0.00 | 0.00 | 93 | 1026.4 |
| 20260906003026 | 8 | 355 | 0.0 | 0.0 | 0.00 | 0.00 | 0.00 | 93 | 1026.5 |
| 20260906001522 | 8 | 355 | 0.0 | 0.0 | 0.00 | 0.00 | 0.00 | 92 | 1026.6 |
| 20260906000020 | 8 | 355 | 0.0 | 0.0 | 0.00 | 0.00 | 0.00 | 92 | 1026.4 |
| 20260905234516 | 8 | 355 | 0.0 | 1.6 | 0.00 | 0.00 | 0.00 | 92 | 1026.4 |
| 20260905233017 | 9 | 355 | 0.0 | 0.0 | 0.00 | 0.00 | 0.00 | 92 | 1026.2 |
| 20260905231515 | 9 | 355 | 0.0 | 1.6 | 0.00 | 0.00 | 0.00 | 91 | 1026.4 |
| 20260905230013 | 9 | 355 | 0.0 | 3.2 | 0.00 | 0.00 | 0.00 | 92 | 1026.4 |
| 20260905224511 | 9 | 355 | 0.0 | 0.0 | 0.00 | 0.00 | 0.00 | 91 | 1026.2 |
| 20260905223028 | 10 | 355 | 0.0 | 0.0 | 0.00 | 0.00 | 0.00 | 91 | 1026.1 |
| 20260905221524 | 10 | 355 | 0.0 | 0.0 | 0.00 | 0.00 | 0.00 | 91 | 1026.3 |
| 20260905220006 | 10 | 355 | 0.0 | 1.6 | 0.00 | 0.00 | 0.00 | 91 | 1026.2 |
| 20260905214505 | 10 | 355 | 0.0 | 0.0 | 0.00 | 0.00 | 0.00 | 89 | 1026.2 |
| 20260905213002 | 10 | 355 | 0.0 | 0.0 | 0.00 | 0.00 | 0.00 | 89 | 1026.0 |
| 20260905211558 | -17 | 0.0 | 0.0 | 0.00 | 0.00 | 0.00 | 1026.0 | ||
| 20260905210108 | -17 | 0.0 | 0.0 | 0.00 | 0.00 | 0.00 | 1025.9 | ||
| 20260905204548 | -17 | 0.0 | 0.0 | 0.00 | 0.00 | 0.00 | 1025.9 | ||
| 20260905203045 | -17 | 0.0 | 0.0 | 0.00 | 0.00 | 0.00 | 1025.8 | ||
| 20260905201540 | -17 | 0.0 | 0.0 | 0.00 | 0.00 | 0.00 | 1025.6 | ||
| 20260905200052 | -17 | 0.0 | 0.0 | 0.00 | 0.00 | 0.00 | 1025.4 | ||
| 20260905194535 | -17 | 0.0 | 0.0 | 0.00 | 0.00 | 0.00 | 1025.4 | ||
| 20260905193027 | 12 | 355 | 1.6 | 6.4 | 0.00 | 0.00 | 0.00 | 82 | 1025.3 |
| 20260905191526 | 13 | 355 | 1.6 | 6.4 | 0.00 | 0.00 | 0.00 | 82 | 1025.2 |
| 20260905190023 | -17 | 0.0 | 0.0 | 0.00 | 0.00 | 0.00 | 1024.9 | ||
| 20260905184521 | 14 | 355 | 0.0 | 4.8 | 0.00 | 0.18 | 0.00 | 78 | 1024.9 |
| 20260905183017 | 14 | 355 | 0.0 | 4.8 | 0.00 | 0.18 | 0.00 | 78 | 1024.8 |
| 20260905181516 | 15 | 355 | 0.0 | 4.8 | 0.00 | 0.18 | 0.00 | 78 | 1024.7 |
| 20260905180016 | 15 | 347 | 0.0 | 4.8 | 0.00 | 0.18 | 0.00 | 76 | 1024.5 |
| 20260905174513 | 15 | 331 | 1.6 | 4.8 | 0.00 | 0.64 | 0.00 | 75 | 1024.5 |
| 20260905173012 | 16 | 296 | 1.6 | 6.4 | 0.00 | 0.64 | 0.00 | 73 | 1024.4 |
| 20260905171529 | 16 | 319 | 1.6 | 6.4 | 0.00 | 0.64 | 0.00 | 72 | 1024.2 |
| 20260905170009 | 16 | 242 | 1.6 | 12.9 | 0.00 | 0.64 | 0.00 | 70 | 1024.0 |
| 20260905164507 | 17 | 308 | 3.2 | 14.5 | 0.00 | 0.69 | 0.00 | 67 | 1023.9 |
| 20260905163007 | 17 | 5 | 1.6 | 19.3 | 0.00 | 0.69 | 0.00 | 65 | 1023.6 |
| 20260905161505 | 17 | 12 | 4.8 | 14.5 | 0.00 | 0.69 | 0.00 | 65 | 1023.6 |
| 20260905160005 | 17 | 12 | 3.2 | 12.9 | 0.00 | 0.69 | 0.00 | 64 | 1023.6 |
| 20260905154503 | 17 | 345 | 3.2 | 16.1 | 0.00 | 0.69 | 0.00 | 65 | 1023.6 |
| 20260905153004 | 17 | 295 | 4.8 | 14.5 | 0.00 | 0.69 | 0.00 | 65 | 1023.4 |
| 20260905151601 | 17 | 307 | 3.2 | 17.7 | 0.00 | 0.69 | 0.00 | 68 | 1023.3 |
| 20260905150059 | 18 | 227 | 3.2 | 16.1 | 0.00 | 0.69 | 0.00 | 67 | 1023.3 |
| 20260905144558 | 17 | 348 | 4.8 | 19.3 | 0.00 | 0.69 | 0.00 | 65 | 1023.1 |
| 20260905143055 | 17 | 15 | 3.2 | 12.9 | 0.00 | 0.69 | 0.00 | 67 | 1023.0 |
| 20260905141555 | 16 | 242 | 1.6 | 14.5 | 0.00 | 0.69 | 0.00 | 72 | 1023.1 |
| 20260905140053 | 16 | 263 | 3.2 | 14.5 | 0.00 | 0.69 | 0.00 | 70 | 1023.1 |
| 20260905134555 | 16 | 259 | 1.6 | 11.3 | 0.00 | 0.69 | 0.00 | 73 | 1023.1 |
| 20260905133051 | 16 | 248 | 6.4 | 19.3 | 0.00 | 0.69 | 0.00 | 71 | 1023.0 |
| 20260905131553 | 17 | 273 | 3.2 | 20.9 | 0.00 | 0.69 | 0.00 | 70 | 1022.9 |
| 20260905130047 | 17 | 240 | 6.4 | 17.7 | 0.00 | 0.69 | 0.00 | 71 | 1022.9 |
| 20260905124550 | 16 | 276 | 4.8 | 22.5 | 0.00 | 0.69 | 0.00 | 70 | 1022.7 |
| 20260905123045 | 16 | 238 | 6.4 | 22.5 | 0.00 | 0.69 | 0.00 | 71 | 1022.7 |
| 20260905121543 | 16 | 248 | 3.2 | 14.5 | 0.00 | 0.69 | 0.00 | 69 | 1022.6 |
| 20260905120043 | 16 | 298 | 6.4 | 16.1 | 0.00 | 0.69 | 0.00 | 70 | 1022.4 |
| 20260905114540 | 16 | 280 | 9.7 | 22.5 | 0.00 | 0.69 | 0.00 | 71 | 1022.4 |
| 20260905113037 | 16 | 222 | 4.8 | 25.7 | 0.00 | 0.69 | 0.00 | 70 | 1022.1 |
| 20260905111535 | 16 | 301 | 6.4 | 25.7 | 0.00 | 0.69 | 0.00 | 73 | 1022.2 |
| 20260905110034 | 15 | 263 | 6.4 | 24.1 | 0.00 | 0.69 | 0.00 | 76 | 1022.1 |
| 20260905104541 | 15 | 326 | 6.4 | 19.3 | 0.00 | 0.69 | 0.00 | 75 | 1021.9 |
| 20260905103033 | 15 | 268 | 3.2 | 16.1 | 0.00 | 0.69 | 0.00 | 77 | 1022.0 |
| 20260905101528 | 15 | 246 | 6.4 | 24.1 | 0.00 | 0.69 | 0.00 | 77 | 1021.8 |
| 20260905100027 | 15 | 255 | 3.2 | 20.9 | 0.00 | 0.69 | 0.00 | 79 | 1021.6 |
| 20260905094524 | 14 | 292 | 3.2 | 17.7 | 0.00 | 0.69 | 0.00 | 80 | 1021.6 |
| 20260905093022 | 14 | 253 | 3.2 | 14.5 | 0.00 | 0.69 | 0.00 | 82 | 1021.5 |
| 20260905091521 | 14 | 249 | 3.2 | 24.1 | 0.00 | 0.69 | 0.00 | 82 | 1021.3 |
| 20260905090022 | 13 | 319 | 3.2 | 20.9 | 0.00 | 0.69 | 0.00 | 84 | 1021.1 |
| 20260905084522 | 13 | 203 | 4.8 | 19.3 | 0.00 | 0.69 | 0.00 | 85 | 1020.8 |
| 20260905083016 | 13 | 240 | 4.8 | 19.3 | 0.00 | 0.69 | 0.00 | 87 | 1020.6 |
| 20260905081511 | 13 | 288 | 4.8 | 19.3 | 0.00 | 0.69 | 0.00 | 88 | 1020.4 |
| 20260905080020 | 13 | 248 | 6.4 | 22.5 | 0.00 | 0.69 | 0.00 | 88 | 1020.4 |
| 20260905074508 | 13 | 259 | 6.4 | 14.5 | 0.00 | 0.69 | 0.00 | 89 | 1020.3 |
| 20260905073019 | 12 | 274 | 9.7 | 24.1 | 0.00 | 0.69 | 0.00 | 89 | 1020.0 |
| 20260905071505 | 12 | 244 | 8.0 | 20.9 | 0.00 | 0.69 | 0.00 | 89 | 1019.9 |
| 20260905070001 | 12 | 219 | 8.0 | 19.3 | 0.00 | 0.69 | 0.00 | 90 | 1019.5 |
| 20260905064602 | 12 | 236 | 1.6 | 17.7 | 0.00 | 0.69 | 0.00 | 91 | 1019.3 |
| 20260905063109 | 12 | 205 | 4.8 | 17.7 | 0.00 | 0.69 | 0.00 | 91 | 1019.3 |
| 20260905061609 | 12 | 240 | 3.2 | 17.7 | 0.00 | 0.69 | 0.00 | 91 | 1019.0 |
| 20260905060052 | 12 | 259 | 3.2 | 19.3 | 0.00 | 0.69 | 0.00 | 91 | 1019.0 |
| 20260905054550 | 12 | 262 | 4.8 | 16.1 | 0.00 | 0.69 | 0.00 | 92 | 1018.7 |
| 20260905053050 | 12 | 339 | 6.4 | 17.7 | 0.00 | 0.69 | 0.00 | 92 | 1018.5 |
| 20260905051546 | 12 | 259 | 3.2 | 9.7 | 0.00 | 0.69 | 0.00 | 92 | 1018.1 |
| 20260905050042 | 12 | 242 | 3.2 | 11.3 | 0.00 | 0.69 | 0.00 | 92 | 1017.8 |
| 20260905044539 | 12 | 248 | 3.2 | 12.9 | 0.00 | 0.69 | 0.00 | 92 | 1017.6 |
| 20260905043105 | 12 | 257 | 4.8 | 14.5 | 0.00 | 0.69 | 0.00 | 92 | 1017.5 |
| 20260905041536 | 12 | 287 | 3.2 | 17.7 | 0.00 | 0.69 | 0.00 | 92 | 1017.4 |
| 20260905040045 | 12 | 259 | 1.6 | 19.3 | 0.00 | 0.69 | 0.00 | 92 | 1017.3 |
| 20260905034533 | 12 | 290 | 4.8 | 12.9 | 0.00 | 0.69 | 0.00 | 92 | 1017.2 |
| 20260905033035 | 12 | 248 | 1.6 | 14.5 | 0.00 | 0.69 | 0.00 | 92 | 1017.2 |
| 20260905031530 | 12 | 297 | 0.0 | 11.3 | 0.00 | 0.69 | 0.00 | 92 | 1017.2 |
| 20260905030030 | 12 | 327 | 1.6 | 14.5 | 0.00 | 0.69 | 0.00 | 91 | 1017.2 |
| 20260905024527 | 13 | 355 | 0.0 | 11.3 | 0.00 | 0.69 | 0.00 | 91 | 1017.2 |
| 20260905023026 | 13 | 247 | 3.2 | 11.3 | 0.00 | 0.69 | 0.00 | 92 | 1017.0 |
| 20260905021530 | 13 | 270 | 1.6 | 11.3 | 0.00 | 0.69 | 0.00 | 92 | 1016.9 |
| 20260905020023 | 13 | 246 | 3.2 | 20.9 | 0.00 | 0.69 | 0.00 | 91 | 1016.8 |